CST,Max TemperatureF,Mean TemperatureF,Min TemperatureF,Max Dew PointF,MeanDew PointF,Min DewpointF,Max Humidity, Mean Humidity, Min Humidity, Max Sea Level PressureIn, Mean Sea Level PressureIn, Min Sea Level PressureIn, Max VisibilityMiles, Mean VisibilityMiles, Min VisibilityMiles, Max Wind SpeedMPH, Mean Wind SpeedMPH, Max Gust SpeedMPH,PrecipitationIn, CloudCover, Events, WindDirDegrees
2011-11-1,69,50,32,41,35,28,93,58,31,30.23,30.18,30.13,10,10,2,20,4,23,0.00,0,,187
2011-11-2,69,54,39,46,40,30,81,56,40,30.20,30.11,29.96,10,10,8,23,8,28,0.00,0,,188
2011-11-3,57,52,46,52,44,37,94,82,48,30.01,29.85,29.76,10,8,2,16,8,21,0.66,7,,195
2011-11-4,57,45,33,45,41,32,100,83,63,30.26,30.19,30.06,10,8,0,10,6,16,0.00,6,,17
2011-11-5,60,45,30,46,38,28,100,78,52,30.26,30.19,30.09,10,7,0,10,2,,0.00,1,,135
2011-11-6,60,55,50,45,41,37,76,60,48,30.22,30.16,30.09,10,10,10,21,11,28,0.00,4,,176
2011-11-7,66,60,53,57,51,45,94,73,55,30.24,30.19,30.14,10,10,7,17,7,22,0.00,7,,190
2011-11-8,69,63,57,59,54,50,94,75,60,30.11,30.01,29.93,10,10,7,24,10,33,0.41,6,,177
2011-11-9,60,48,35,59,43,32,94,77,62,30.18,29.95,29.73,10,10,3,23,13,36,0.36,6,,236
2011-11-10,48,37,26,30,25,19,93,62,34,30.19,30.16,30.13,10,10,9,18,5,29,0.00,0,,268
2011-11-11,57,40,24,37,29,21,100,70,38,30.17,30.05,29.89,10,10,10,18,5,23,0.00,0,,189
2011-11-12,59,50,42,46,38,34,71,62,45,29.99,29.92,29.81,10,10,10,28,13,37,0.00,1,,194
2011-11-13,69,63,57,59,54,46,78,69,60,29.76,29.68,29.61,10,10,10,34,23,47,0.00,5,,201
2011-11-14,71,66,62,64,59,48,94,79,59,29.78,29.68,29.62,10,10,7,30,20,38,0.26,4,Thunderstorm,209
2011-11-15,59,55,51,55,51,46,94,88,77,29.86,29.83,29.80,10,10,5,13,7,,0.13,7,,188
2011-11-16,57,50,42,55,33,18,100,59,32,30.17,30.00,29.84,10,9,3,17,7,31,0.01,2,,4
2011-11-17,44,34,24,25,18,10,86,52,27,30.37,30.34,30.29,10,10,10,9,3,16,0.00,0,,303
2011-11-18,53,38,24,25,21,18,86,49,28,30.33,30.22,30.05,10,10,10,23,8,30,0.00,0,,178
2011-11-19,62,54,46,54,39,28,72,60,50,30.06,29.99,29.89,10,10,10,24,16,33,0.00,7,,190
2011-11-20,57,50,42,54,43,39,93,88,81,30.22,30.14,30.04,10,6,2,15,8,22,0.45,7,,7
2011-11-21,46,,46,45,45,45,93,93,93,30.17,30.17,30.17,1,1,1,6,6,,0.00,8,Thunderstorm,30
2011-11-22,,,,,,,,,,,,,,,,,,,,,,
2011-11-23,46,44,42,43,41,39,93,85,81,30.33,30.29,30.19,10,7,2,13,3,,0.00,8,,249
2011-11-24,50,46,42,43,41,39,93,87,76,30.37,30.31,30.23,10,8,5,15,10,20,0.00,7,,188
2011-11-25,60,51,42,46,42,39,93,83,55,30.22,30.10,30.02,10,8,4,26,12,32,0.00,3,,187
2011-11-26,62,54,44,55,52,43,94,81,67,30.04,29.94,29.84,10,9,2,23,11,33,0.67,6,,187
2011-11-27,44,40,37,41,36,34,93,88,81,30.10,30.01,29.89,10,9,4,8,5,,0.42,8,,332
2011-11-28,39,38,37,37,34,32,93,86,75,30.08,29.93,29.75,10,9,4,17,9,31,0.22,8,,6
2011-11-29,41,36,30,37,34,25,93,86,65,30.08,29.85,29.71,10,8,2,14,8,21,0.45,7,,338
2011-11-30,33,28,24,25,24,19,100,84,70,30.22,30.15,30.07,10,10,10,6,1,,0.00,0,,285